Regional Weather Roundup
Issued by NWS

Home | Current Version | Previous Version | Text Only | Print | Product List | Glossary Off
Versions: 1 2 3 4 5 6 7 8 9 10 11 12 13 14 15 16 17 18 19 20 21 22 23 24 25 26 27 28 29 30 31 32 33 34 35 36 37 38 39 40 41 42 43 44 45 46 47 48 49 50

000
ASUS44 KMEG 020310
RWRTN
TENNESSEE HOURLY STATE WEATHER ROUNDUP
NATIONAL WEATHER SERVICE MEMPHIS TN
1000 PM CDT SAT AUG 01 2015

TNZ002-004-019-021-049-052-054-088>092-020400-
WEST TENNESSEE

CITY           SKY/WX    TMP DP  RH WIND       PRES   REMARKS
MEMPHIS INTL   PTCLDY    84  66  54 N5        29.97R
NWS MEMPHIS      N/A     76 N/A N/A MISG        N/A
JACKSON        CLEAR     76  69  79 CALM      29.98R
DYERSBURG        N/A    N/A N/A N/A MISG        N/A
PARIS          CLEAR     72  68  88 CALM      30.00R
LEXINGTON      CLEAR     73  73 100 CALM      29.98R
$$

TNZ008-025-027-028-033-062-065-066-020400-
NORTH MIDDLE TENNESSEE

CITY           SKY/WX    TMP DP  RH WIND       PRES   REMARKS
NASHVILLE      PTCLDY    78  65  63 N9        30.00R
CLARKSVILLE    PTCLDY    73  66  78 NE5       29.99S
SMYRNA         CLEAR     78  65  64 N6        30.00R
CROSSVILLE     CLEAR     72  62  71 N6        30.06R
$$

TNZ061-075-076-078-094-096-097-020400-
SOUTH MIDDLE TENNESSEE

CITY           SKY/WX    TMP DP  RH WIND       PRES   REMARKS
FAYETTEVILLE   CLEAR     73  63  68 NE6       30.00S
TULLAHOMA      CLEAR     73  64  73 CALM      30.02S
WINCHESTER     CLEAR     70  66  88 SE3       30.01R
MCMINNVILLE    CLEAR     70  70 100 CALM      30.02R
COLUMBIA       PTCLDY    75  73  94 CALM      29.99R
SHELBYVILLE    CLEAR     72  68  88 CALM      30.01R
$$

TNZ017-018-042-046-047-020400-
NORTHEAST TENNESSEE

CITY           SKY/WX    TMP DP  RH WIND       PRES   REMARKS
TRI CITIES     PTCLDY    69  61  75 CALM      30.01S
ELIZABETHTON   CLEAR     63  61  94 CALM      30.03S
$$

TNZ012-013-036-069-073-074-020400-
CENTRAL EAST TENNESSEE

CITY           SKY/WX    TMP DP  RH WIND       PRES   REMARKS
KNOXVILLE      PTCLDY    76  66  71 CALM      29.98R
OAK RIDGE      FAIR      73  64  73 CALM      30.01R
GATLINBURG     PTCLDY    72  63  73 CALM      29.99S
MORRISTOWN     CLEAR     72  64  78 CALM      30.02R
$$

TNZ083-085-099-020400-
SOUTHEAST TENNESSEE

CITY           SKY/WX    TMP DP  RH WIND       PRES   REMARKS
CHATTANOOGA    PTCLDY    77  68  73 CALM      29.98R
$$

SKY/WX REPORTED AS FAIR MEANS FEW OR NO CLOUDS BELOW
12 THOUSAND FEET.



USA.gov is the U.S. government's official web portal to all federal, state and local government web resources and services.